^^
Your Local Weather - Clay, NY Station Historical Data
Daily Summary for March 15, 2017 Units:  English    Metric   Both
« Previous Day
Next Day »
Daily Weekly Monthly Yearly Custom
  High: Low: Average:
Temperature: 23.0 °F 15.1 °F 18.3 °F
Dew Point: 20.5 °F 12.4 °F 15.8 °F
Humidity: 91% 89% 90%
Wind Speed: 8.0mph 1.0mph 3.6mph
Wind Gust: 16.0mph - -
Wind- - NW
Pressure: 29.83 in 29.57 in -
Precipitation: 0.00 in    
Historical Graphs
 
 
Tabular Data for March 15, 2017
Time Temperature Dew Point Pressure Wind Wind Speed Wind Gust Humidity Rainfall Rate (Hourly) solar
00:00 16.3 °F 13.6 °F 29.66 in NW 5.0 mph 5.0 mph 89% 0.00 in 0 W/m2
00:06 16.3 °F 13.6 °F 29.65 in NW 3.0 mph 5.0 mph 89% 0.00 in 0 W/m2
00:12 16.2 °F 13.5 °F 29.65 in NW 3.0 mph 4.0 mph 89% 0.00 in 0 W/m2
00:18 16.2 °F 13.5 °F 29.65 in NW 5.0 mph 5.0 mph 89% 0.00 in 0 W/m2
00:24 16.2 °F 13.5 °F 29.65 in NNW 4.0 mph 7.0 mph 89% 0.00 in 0 W/m2
00:30 16.2 °F 13.5 °F 29.65 in NNW 5.0 mph 5.0 mph 89% 0.00 in 0 W/m2
00:36 16.2 °F 13.5 °F 29.64 in NW 5.0 mph 5.0 mph 89% 0.00 in 0 W/m2
00:42 16.1 °F 13.4 °F 29.64 in NW 4.0 mph 4.0 mph 89% 0.00 in 0 W/m2
00:48 16.1 °F 13.4 °F 29.64 in NW 4.0 mph 6.0 mph 89% 0.00 in 0 W/m2
00:54 16.1 °F 13.4 °F 29.64 in NW 4.0 mph 5.0 mph 89% 0.00 in 0 W/m2
01:00 16.1 °F 13.4 °F 29.64 in NW 4.0 mph 4.0 mph 89% 0.00 in 0 W/m2
01:06 16.1 °F 13.4 °F 29.64 in WNW 4.0 mph 6.0 mph 89% 0.00 in 0 W/m2
01:18 16.1 °F 13.4 °F 29.63 in NW 5.0 mph 8.0 mph 89% 0.00 in 0 W/m2
01:24 16.1 °F 13.4 °F 29.63 in NNW 4.0 mph 5.0 mph 89% 0.00 in 0 W/m2
01:30 16.0 °F 13.3 °F 29.63 in NW 3.0 mph 6.0 mph 89% 0.00 in 0 W/m2
01:36 16.0 °F 13.3 °F 29.64 in NNW 4.0 mph 6.0 mph 89% 0.00 in 0 W/m2
01:42 15.9 °F 13.2 °F 29.63 in NW 3.0 mph 4.0 mph 89% 0.00 in 0 W/m2
01:48 15.9 °F 13.2 °F 29.63 in NNW 2.0 mph 4.0 mph 89% 0.00 in 0 W/m2
01:54 15.9 °F 13.2 °F 29.63 in NW 2.0 mph 3.0 mph 89% 0.00 in 0 W/m2
02:00 15.8 °F 13.1 °F 29.63 in NW 2.0 mph 3.0 mph 89% 0.00 in 0 W/m2
02:06 15.8 °F 13.1 °F 29.62 in NNW 2.0 mph 7.0 mph 89% 0.00 in 0 W/m2
02:12 15.7 °F 13.0 °F 29.62 in NW 3.0 mph 3.0 mph 89% 0.00 in 0 W/m2
02:18 15.7 °F 13.0 °F 29.62 in NW 2.0 mph 5.0 mph 89% 0.00 in 0 W/m2
02:26 15.7 °F 13.0 °F 29.62 in NW 3.0 mph 3.0 mph 89% 0.00 in 0 W/m2
02:32 15.7 °F 13.0 °F 29.62 in NW 2.0 mph 3.0 mph 89% 0.00 in 0 W/m2
02:38 15.6 °F 12.9 °F 29.62 in NW 2.0 mph 3.0 mph 89% 0.00 in 0 W/m2
02:44 15.6 °F 12.9 °F 29.61 in NNW 3.0 mph 3.0 mph 89% 0.00 in 0 W/m2
02:50 15.6 °F 12.9 °F 29.61 in NNW 2.0 mph 2.0 mph 89% 0.00 in 0 W/m2
02:56 15.6 °F 12.9 °F 29.61 in NW 1.0 mph 5.0 mph 89% 0.00 in 0 W/m2
03:14 15.5 °F 12.8 °F 29.60 in WNW 2.0 mph 3.0 mph 89% 0.00 in 0 W/m2
03:20 15.5 °F 12.8 °F 29.60 in WSW 2.0 mph 6.0 mph 89% 0.00 in 0 W/m2
03:26 15.5 °F 12.8 °F 29.60 in NW 2.0 mph 6.0 mph 89% 0.00 in 0 W/m2
03:32 15.5 °F 12.8 °F 29.60 in WNW 2.0 mph 3.0 mph 89% 0.00 in 0 W/m2
03:38 15.5 °F 12.8 °F 29.60 in WNW 1.0 mph 3.0 mph 89% 0.00 in 0 W/m2
03:44 15.5 °F 12.8 °F 29.59 in WNW 1.0 mph 2.0 mph 89% 0.00 in 0 W/m2
03:50 15.4 °F 12.7 °F 29.59 in NW 1.0 mph 1.0 mph 89% 0.00 in 0 W/m2
03:56 15.4 °F 12.7 °F 29.59 in WNW 2.0 mph 4.0 mph 89% 0.00 in 0 W/m2
04:02 15.4 °F 12.7 °F 29.59 in WNW 2.0 mph 3.0 mph 89% 0.00 in 0 W/m2
04:08 15.4 °F 12.7 °F 29.59 in WNW 2.0 mph 3.0 mph 89% 0.00 in 0 W/m2
04:14 15.3 °F 12.6 °F 29.59 in WNW 2.0 mph 3.0 mph 89% 0.00 in 0 W/m2
04:20 15.3 °F 12.6 °F 29.59 in WNW 2.0 mph 3.0 mph 89% 0.00 in 0 W/m2
04:26 15.3 °F 12.6 °F 29.59 in WNW 2.0 mph 3.0 mph 89% 0.00 in 0 W/m2
04:32 15.2 °F 12.5 °F 29.58 in WNW 3.0 mph 4.0 mph 89% 0.00 in 0 W/m2
04:38 15.2 °F 12.5 °F 29.58 in WNW 3.0 mph 4.0 mph 89% 0.00 in 0 W/m2
04:44 15.2 °F 12.5 °F 29.58 in NW 3.0 mph 4.0 mph 89% 0.00 in 0 W/m2
04:50 15.1 °F 12.4 °F 29.58 in WNW 3.0 mph 5.0 mph 89% 0.00 in 0 W/m2
04:56 15.1 °F 12.4 °F 29.58 in WNW 3.0 mph 7.0 mph 89% 0.00 in 0 W/m2
05:02 15.1 °F 12.4 °F 29.58 in NNW 3.0 mph 3.0 mph 89% 0.00 in 0 W/m2
05:08 15.1 °F 12.4 °F 29.58 in NW 3.0 mph 3.0 mph 89% 0.00 in 0 W/m2
05:14 15.1 °F 12.4 °F 29.58 in NW 3.0 mph 3.0 mph 89% 0.00 in 0 W/m2
05:20 15.1 °F 12.4 °F 29.57 in NW 3.0 mph 3.0 mph 89% 0.00 in 0 W/m2
05:26 15.1 °F 12.4 °F 29.57 in WNW 2.0 mph 3.0 mph 89% 0.00 in 0 W/m2
05:32 15.1 °F 12.4 °F 29.57 in WNW 1.0 mph 1.0 mph 89% 0.00 in 0 W/m2
05:38 15.1 °F 12.4 °F 29.57 in NNW 1.0 mph 2.0 mph 89% 0.00 in 0 W/m2
05:44 15.1 °F 12.4 °F 29.57 in NW 2.0 mph 3.0 mph 89% 0.00 in 0 W/m2
05:50 15.1 °F 12.4 °F 29.57 in NW 2.0 mph 2.0 mph 89% 0.00 in 0 W/m2
05:56 15.2 °F 12.5 °F 29.57 in NW 3.0 mph 3.0 mph 89% 0.00 in 0 W/m2
06:02 15.2 °F 12.5 °F 29.57 in WNW 2.0 mph 3.0 mph 89% 0.00 in 0 W/m2
06:08 15.3 °F 12.6 °F 29.57 in NW 2.0 mph 3.0 mph 89% 0.00 in 0 W/m2
06:14 15.3 °F 12.6 °F 29.57 in NW 2.0 mph 2.0 mph 89% 0.00 in 0 W/m2
06:20 15.4 °F 12.7 °F 29.57 in WNW 2.0 mph 2.0 mph 89% 0.00 in 0 W/m2
06:26 15.4 °F 12.7 °F 29.57 in NW 3.0 mph 4.0 mph 89% 0.00 in 0 W/m2
06:32 15.4 °F 12.7 °F 29.57 in WNW 3.0 mph 3.0 mph 89% 0.00 in 0 W/m2
06:38 15.4 °F 12.7 °F 29.57 in West 2.0 mph 4.0 mph 89% 0.00 in 0 W/m2
06:44 15.4 °F 12.7 °F 29.57 in WNW 2.0 mph 2.0 mph 89% 0.00 in 0 W/m2
06:50 15.4 °F 12.7 °F 29.57 in WNW 2.0 mph 2.0 mph 89% 0.00 in 0 W/m2
06:56 15.4 °F 12.7 °F 29.57 in WNW 3.0 mph 3.0 mph 89% 0.00 in 0 W/m2
07:02 15.3 °F 12.6 °F 29.57 in WNW 2.0 mph 6.0 mph 89% 0.00 in 0 W/m2
07:08 15.3 °F 12.6 °F 29.57 in WNW 3.0 mph 8.0 mph 89% 0.00 in 0 W/m2
07:14 15.2 °F 12.5 °F 29.57 in NW 4.0 mph 5.0 mph 89% 0.00 in 0 W/m2
07:20 15.2 °F 12.5 °F 29.57 in WNW 3.0 mph 3.0 mph 89% 0.00 in 0 W/m2
07:26 15.2 °F 12.5 °F 29.57 in NW 3.0 mph 6.0 mph 89% 0.00 in 0 W/m2
07:32 15.2 °F 12.5 °F 29.57 in NW 3.0 mph 3.0 mph 89% 0.00 in 0 W/m2
07:38 15.2 °F 12.5 °F 29.57 in WNW 2.0 mph 4.0 mph 89% 0.00 in 0 W/m2
07:44 15.3 °F 12.6 °F 29.57 in NW 2.0 mph 5.0 mph 89% 0.00 in 5 W/m2
07:50 15.3 °F 12.6 °F 29.57 in NW 1.0 mph 2.0 mph 89% 0.00 in 7 W/m2
07:56 15.3 °F 12.6 °F 29.57 in WNW 2.0 mph 3.0 mph 89% 0.00 in 11 W/m2
08:02 15.3 °F 12.6 °F 29.58 in WNW 3.0 mph 4.0 mph 89% 0.00 in 12 W/m2
08:08 15.4 °F 12.7 °F 29.57 in NW 3.0 mph 5.0 mph 89% 0.00 in 12 W/m2
08:14 15.4 °F 12.7 °F 29.57 in WNW 2.0 mph 3.0 mph 89% 0.00 in 16 W/m2
08:20 15.4 °F 12.7 °F 29.57 in NW 2.0 mph 2.0 mph 89% 0.00 in 18 W/m2
08:26 15.5 °F 12.8 °F 29.57 in WNW 2.0 mph 3.0 mph 89% 0.00 in 18 W/m2
08:32 15.6 °F 12.9 °F 29.57 in WNW 2.0 mph 2.0 mph 89% 0.00 in 21 W/m2
08:38 15.6 °F 12.9 °F 29.57 in WNW 2.0 mph 5.0 mph 89% 0.00 in 21 W/m2
08:44 15.7 °F 13.0 °F 29.57 in WNW 2.0 mph 3.0 mph 89% 0.00 in 21 W/m2
08:50 15.7 °F 13.0 °F 29.57 in WNW 2.0 mph 3.0 mph 89% 0.00 in 25 W/m2
08:56 15.7 °F 13.0 °F 29.57 in NW 3.0 mph 4.0 mph 89% 0.00 in 26 W/m2
09:02 15.8 °F 13.1 °F 29.57 in WNW 3.0 mph 3.0 mph 89% 0.00 in 25 W/m2
09:08 15.9 °F 13.2 °F 29.57 in NW 2.0 mph 3.0 mph 89% 0.00 in 32 W/m2
09:14 15.9 °F 13.2 °F 29.58 in WNW 3.0 mph 4.0 mph 89% 0.00 in 37 W/m2
09:20 15.9 °F 13.2 °F 29.57 in West 3.0 mph 6.0 mph 89% 0.00 in 37 W/m2
09:26 16.0 °F 13.3 °F 29.57 in WNW 3.0 mph 6.0 mph 89% 0.00 in 35 W/m2
09:32 16.1 °F 13.4 °F 29.58 in NW 3.0 mph 3.0 mph 89% 0.00 in 42 W/m2
09:38 16.2 °F 13.5 °F 29.57 in NW 3.0 mph 3.0 mph 89% 0.00 in 47 W/m2
09:44 16.3 °F 13.6 °F 29.57 in WNW 3.0 mph 4.0 mph 89% 0.00 in 51 W/m2
09:56 16.6 °F 13.9 °F 29.58 in NW 2.0 mph 7.0 mph 89% 0.00 in 39 W/m2
10:02 16.6 °F 13.9 °F 29.57 in WNW 3.0 mph 3.0 mph 89% 0.00 in 42 W/m2
10:08 16.6 °F 13.9 °F 29.57 in WNW 3.0 mph 7.0 mph 89% 0.00 in 51 W/m2
10:14 16.6 °F 13.9 °F 29.57 in NW 3.0 mph 4.0 mph 89% 0.00 in 56 W/m2
10:20 16.7 °F 14.0 °F 29.57 in NW 3.0 mph 6.0 mph 89% 0.00 in 56 W/m2
10:26 16.7 °F 14.0 °F 29.58 in WNW 4.0 mph 6.0 mph 89% 0.00 in 54 W/m2
10:32 16.9 °F 14.2 °F 29.58 in WNW 3.0 mph 5.0 mph 89% 0.00 in 49 W/m2
10:38 17.0 °F 14.3 °F 29.58 in WNW 3.0 mph 5.0 mph 89% 0.00 in 51 W/m2
10:44 17.1 °F 14.4 °F 29.58 in NW 3.0 mph 3.0 mph 89% 0.00 in 58 W/m2
10:50 17.1 °F 14.4 °F 29.58 in WNW 4.0 mph 4.0 mph 89% 0.00 in 53 W/m2
10:56 17.2 °F 14.5 °F 29.58 in WNW 3.0 mph 4.0 mph 89% 0.00 in 58 W/m2
11:02 17.2 °F 14.5 °F 29.58 in NW 3.0 mph 7.0 mph 89% 0.00 in 53 W/m2
11:08 17.3 °F 14.6 °F 29.58 in WNW 3.0 mph 7.0 mph 89% 0.00 in 53 W/m2
11:14 17.3 °F 14.6 °F 29.59 in WNW 3.0 mph 4.0 mph 89% 0.00 in 53 W/m2
11:20 17.3 °F 14.6 °F 29.59 in NW 4.0 mph 4.0 mph 89% 0.00 in 63 W/m2
11:26 17.4 °F 14.7 °F 29.59 in NW 4.0 mph 7.0 mph 89% 0.00 in 67 W/m2
11:32 17.5 °F 14.8 °F 29.59 in WNW 3.0 mph 4.0 mph 89% 0.00 in 60 W/m2
11:38 17.7 °F 15.3 °F 29.59 in WNW 3.0 mph 5.0 mph 90% 0.00 in 60 W/m2
11:44 17.7 °F 15.3 °F 29.59 in NNW 3.0 mph 4.0 mph 90% 0.00 in 65 W/m2
11:50 17.6 °F 15.2 °F 29.59 in NW 4.0 mph 4.0 mph 90% 0.00 in 62 W/m2
11:56 17.7 °F 15.3 °F 29.59 in NW 3.0 mph 5.0 mph 90% 0.00 in 58 W/m2
12:02 17.7 °F 15.3 °F 29.59 in WNW 3.0 mph 3.0 mph 90% 0.00 in 62 W/m2
12:08 17.9 °F 15.2 °F 29.59 in NW 4.0 mph 9.0 mph 89% 0.00 in 70 W/m2
12:14 17.9 °F 15.2 °F 29.59 in WNW 4.0 mph 6.0 mph 89% 0.00 in 69 W/m2
12:20 18.0 °F 15.3 °F 29.59 in WNW 3.0 mph 5.0 mph 89% 0.00 in 67 W/m2
12:26 18.1 °F 15.4 °F 29.59 in WNW 3.0 mph 7.0 mph 89% 0.00 in 67 W/m2
12:32 18.1 °F 15.4 °F 29.59 in WNW 3.0 mph 6.0 mph 89% 0.00 in 76 W/m2
12:38 18.2 °F 15.8 °F 29.59 in WNW 3.0 mph 6.0 mph 90% 0.00 in 86 W/m2
12:44 18.3 °F 15.9 °F 29.60 in NW 4.0 mph 4.0 mph 90% 0.00 in 84 W/m2
12:50 18.5 °F 16.1 °F 29.60 in NW 4.0 mph 4.0 mph 90% 0.00 in 76 W/m2
12:56 18.6 °F 16.2 °F 29.60 in NNW 4.0 mph 7.0 mph 90% 0.00 in 74 W/m2
13:02 18.6 °F 16.2 °F 29.60 in WNW 4.0 mph 6.0 mph 90% 0.00 in 86 W/m2
13:08 18.6 °F 16.2 °F 29.60 in WNW 4.0 mph 6.0 mph 90% 0.00 in 91 W/m2
13:14 18.7 °F 16.3 °F 29.60 in NW 4.0 mph 5.0 mph 90% 0.00 in 90 W/m2
13:20 19.0 °F 16.6 °F 29.60 in NNW 4.0 mph 9.0 mph 90% 0.00 in 76 W/m2
13:26 19.1 °F 16.7 °F 29.60 in NNW 4.0 mph 9.0 mph 90% 0.00 in 102 W/m2
13:32 19.3 °F 16.8 °F 29.60 in NW 3.0 mph 4.0 mph 90% 0.00 in 69 W/m2
13:38 19.4 °F 16.9 °F 29.60 in NW 4.0 mph 4.0 mph 90% 0.00 in 90 W/m2
13:44 19.3 °F 16.8 °F 29.60 in NW 4.0 mph 6.0 mph 90% 0.00 in 81 W/m2
13:50 19.2 °F 16.7 °F 29.60 in WNW 5.0 mph 5.0 mph 90% 0.00 in 102 W/m2
13:56 19.2 °F 16.7 °F 29.61 in NW 5.0 mph 7.0 mph 90% 0.00 in 98 W/m2
14:02 19.4 °F 16.9 °F 29.61 in NW 4.0 mph 4.0 mph 90% 0.00 in 86 W/m2
14:08 19.5 °F 17.0 °F 29.61 in NW 5.0 mph 5.0 mph 90% 0.00 in 84 W/m2
14:14 19.5 °F 17.0 °F 29.61 in WNW 6.0 mph 6.0 mph 90% 0.00 in 79 W/m2
14:20 19.2 °F 16.7 °F 29.61 in NNW 6.0 mph 6.0 mph 90% 0.00 in 81 W/m2
14:26 19.4 °F 16.9 °F 29.61 in NW 4.0 mph 8.0 mph 90% 0.00 in 102 W/m2
14:32 19.7 °F 17.2 °F 29.61 in WNW 4.0 mph 6.0 mph 90% 0.00 in 105 W/m2
14:38 19.9 °F 17.4 °F 29.62 in NW 5.0 mph 10.0 mph 90% 0.00 in 74 W/m2
14:44 19.8 °F 17.3 °F 29.62 in NNW 5.0 mph 7.0 mph 90% 0.00 in 54 W/m2
14:50 19.8 °F 17.3 °F 29.62 in NW 4.0 mph 4.0 mph 90% 0.00 in 90 W/m2
14:56 19.9 °F 17.4 °F 29.62 in NNW 4.0 mph 6.0 mph 90% 0.00 in 77 W/m2
15:02 19.9 °F 17.4 °F 29.62 in West 5.0 mph 7.0 mph 90% 0.00 in 60 W/m2
15:08 19.8 °F 17.3 °F 29.62 in WNW 4.0 mph 7.0 mph 90% 0.00 in 53 W/m2
15:14 19.9 °F 17.4 °F 29.63 in WNW 5.0 mph 9.0 mph 90% 0.00 in 70 W/m2
15:20 19.9 °F 17.4 °F 29.63 in NW 5.0 mph 5.0 mph 90% 0.00 in 91 W/m2
15:26 20.1 °F 17.6 °F 29.63 in WNW 4.0 mph 6.0 mph 90% 0.00 in 74 W/m2
15:32 20.2 °F 17.7 °F 29.63 in WNW 6.0 mph 6.0 mph 90% 0.00 in 76 W/m2
15:38 20.2 °F 17.7 °F 29.64 in NW 6.0 mph 9.0 mph 90% 0.00 in 70 W/m2
15:44 20.0 °F 17.5 °F 29.64 in NW 7.0 mph 16.0 mph 90% 0.00 in 54 W/m2
15:50 19.9 °F 17.4 °F 29.65 in NW 5.0 mph 11.0 mph 90% 0.00 in 67 W/m2
15:56 19.9 °F 17.4 °F 29.65 in NW 6.0 mph 11.0 mph 90% 0.00 in 70 W/m2
16:02 19.9 °F 17.4 °F 29.65 in NW 5.0 mph 5.0 mph 90% 0.00 in 56 W/m2
16:08 19.9 °F 17.4 °F 29.66 in WNW 5.0 mph 12.0 mph 90% 0.00 in 62 W/m2
16:14 19.8 °F 17.3 °F 29.65 in NW 6.0 mph 9.0 mph 90% 0.00 in 51 W/m2
16:20 19.8 °F 17.3 °F 29.66 in West 5.0 mph 11.0 mph 90% 0.00 in 32 W/m2
16:26 19.6 °F 17.1 °F 29.66 in NW 6.0 mph 11.0 mph 90% 0.00 in 30 W/m2
16:32 19.5 °F 17.0 °F 29.66 in WNW 5.0 mph 6.0 mph 90% 0.00 in 33 W/m2
16:38 19.5 °F 17.0 °F 29.66 in WNW 3.0 mph 6.0 mph 90% 0.00 in 33 W/m2
16:44 19.6 °F 17.1 °F 29.67 in NW 4.0 mph 5.0 mph 90% 0.00 in 47 W/m2
16:50 19.8 °F 17.3 °F 29.67 in NW 4.0 mph 4.0 mph 90% 0.00 in 42 W/m2
16:56 20.0 °F 17.5 °F 29.67 in NW 4.0 mph 6.0 mph 90% 0.00 in 39 W/m2
17:02 20.2 °F 17.7 °F 29.68 in NW 3.0 mph 4.0 mph 90% 0.00 in 26 W/m2
17:08 20.3 °F 17.8 °F 29.68 in WNW 5.0 mph 9.0 mph 90% 0.00 in 35 W/m2
17:14 20.3 °F 17.8 °F 29.68 in WNW 6.0 mph 7.0 mph 90% 0.00 in 28 W/m2
17:20 20.2 °F 17.7 °F 29.68 in NW 5.0 mph 5.0 mph 90% 0.00 in 37 W/m2
17:26 20.3 °F 17.8 °F 29.68 in WNW 4.0 mph 7.0 mph 90% 0.00 in 26 W/m2
17:32 20.4 °F 17.9 °F 29.69 in WNW 3.0 mph 3.0 mph 90% 0.00 in 26 W/m2
17:38 20.5 °F 18.0 °F 29.69 in West 3.0 mph 4.0 mph 90% 0.00 in 28 W/m2
17:44 20.6 °F 18.1 °F 29.69 in WNW 4.0 mph 16.0 mph 90% 0.00 in 26 W/m2
17:50 20.7 °F 18.5 °F 29.70 in WNW 5.0 mph 5.0 mph 91% 0.00 in 21 W/m2
17:56 20.7 °F 18.5 °F 29.70 in WNW 4.0 mph 6.0 mph 91% 0.00 in 23 W/m2
18:02 20.8 °F 18.6 °F 29.70 in WNW 5.0 mph 6.0 mph 91% 0.00 in 19 W/m2
18:08 20.8 °F 18.6 °F 29.70 in WNW 4.0 mph 6.0 mph 91% 0.00 in 14 W/m2
18:14 20.8 °F 18.6 °F 29.70 in NW 4.0 mph 7.0 mph 91% 0.00 in 16 W/m2
18:20 20.9 °F 18.7 °F 29.71 in NW 4.0 mph 4.0 mph 91% 0.00 in 12 W/m2
18:26 20.9 °F 18.7 °F 29.71 in NW 3.0 mph 7.0 mph 91% 0.00 in 9 W/m2
18:32 20.9 °F 18.7 °F 29.71 in NW 3.0 mph 7.0 mph 91% 0.00 in 12 W/m2
18:38 21.0 °F 18.8 °F 29.72 in WNW 3.0 mph 7.0 mph 91% 0.00 in 9 W/m2
18:46 21.1 °F 18.9 °F 29.72 in NW 3.0 mph 4.0 mph 91% 0.00 in 7 W/m2
18:52 21.2 °F 19.0 °F 29.73 in WNW 3.0 mph 4.0 mph 91% 0.00 in 7 W/m2
18:58 21.3 °F 19.1 °F 29.73 in WNW 3.0 mph 4.0 mph 91% 0.00 in 0 W/m2
19:04 21.4 °F 19.2 °F 29.73 in NW 3.0 mph 6.0 mph 91% 0.00 in 0 W/m2
19:10 21.4 °F 19.2 °F 29.74 in NW 3.0 mph 3.0 mph 91% 0.00 in 0 W/m2
19:16 21.5 °F 19.3 °F 29.74 in NNW 4.0 mph 4.0 mph 91% 0.00 in 0 W/m2
19:22 21.6 °F 19.4 °F 29.74 in NW 4.0 mph 7.0 mph 91% 0.00 in 0 W/m2
19:28 21.6 °F 19.4 °F 29.74 in NW 4.0 mph 9.0 mph 91% 0.00 in 0 W/m2
19:34 21.7 °F 19.5 °F 29.74 in WNW 4.0 mph 6.0 mph 91% 0.00 in 0 W/m2
19:40 21.7 °F 19.5 °F 29.75 in WNW 4.0 mph 4.0 mph 91% 0.00 in 0 W/m2
19:46 21.8 °F 19.6 °F 29.75 in WNW 4.0 mph 6.0 mph 91% 0.00 in 0 W/m2
19:52 21.8 °F 19.6 °F 29.75 in NW 3.0 mph 4.0 mph 91% 0.00 in 0 W/m2
19:58 21.8 °F 19.6 °F 29.75 in NW 3.0 mph 5.0 mph 91% 0.00 in 0 W/m2
20:04 21.9 °F 19.7 °F 29.76 in NNW 4.0 mph 8.0 mph 91% 0.00 in 0 W/m2
20:10 22.0 °F 19.8 °F 29.76 in NNW 4.0 mph 4.0 mph 91% 0.00 in 0 W/m2
20:16 22.0 °F 19.8 °F 29.76 in WNW 3.0 mph 4.0 mph 91% 0.00 in 0 W/m2
20:18 22.1 °F 19.9 °F 29.76 in WNW 3.0 mph 4.0 mph 91% 0.00 in 0 W/m2
20:24 22.2 °F 20.0 °F 29.76 in WNW 3.0 mph 3.0 mph 91% 0.00 in 0 W/m2
20:30 22.3 °F 20.1 °F 29.76 in NNW 2.0 mph 2.0 mph 91% 0.00 in 0 W/m2
20:36 22.4 °F 20.2 °F 29.76 in NW 4.0 mph 10.0 mph 91% 0.00 in 0 W/m2
20:42 22.6 °F 20.4 °F 29.76 in WNW 5.0 mph 5.0 mph 91% 0.00 in 0 W/m2
20:48 22.6 °F 20.4 °F 29.77 in NW 4.0 mph 5.0 mph 91% 0.00 in 0 W/m2
20:54 22.7 °F 20.2 °F 29.77 in NW 4.0 mph 4.0 mph 90% 0.00 in 0 W/m2
21:00 22.8 °F 20.3 °F 29.77 in NW 5.0 mph 5.0 mph 90% 0.00 in 0 W/m2
21:08 22.9 °F 20.4 °F 29.78 in NNW 6.0 mph 9.0 mph 90% 0.00 in 0 W/m2
21:14 23.0 °F 20.5 °F 29.78 in West 5.0 mph 12.0 mph 90% 0.00 in 0 W/m2
21:20 22.8 °F 20.3 °F 29.78 in NNW 6.0 mph 6.0 mph 90% 0.00 in 0 W/m2
21:26 22.6 °F 20.1 °F 29.79 in NNW 7.0 mph 8.0 mph 90% 0.00 in 0 W/m2
21:32 22.6 °F 20.1 °F 29.79 in NNW 8.0 mph 8.0 mph 90% 0.00 in 0 W/m2
21:38 22.4 °F 19.9 °F 29.79 in NW 7.0 mph 9.0 mph 90% 0.00 in 0 W/m2
21:44 22.3 °F 19.8 °F 29.79 in NW 7.0 mph 11.0 mph 90% 0.00 in 0 W/m2
21:50 22.4 °F 19.9 °F 29.79 in WNW 6.0 mph 6.0 mph 90% 0.00 in 0 W/m2
21:56 22.4 °F 19.9 °F 29.80 in NW 5.0 mph 7.0 mph 90% 0.00 in 0 W/m2
22:02 22.4 °F 19.9 °F 29.80 in WNW 5.0 mph 13.0 mph 90% 0.00 in 0 W/m2
22:08 22.4 °F 19.9 °F 29.80 in NNW 6.0 mph 13.0 mph 90% 0.00 in 0 W/m2
22:14 22.4 °F 19.9 °F 29.80 in NW 5.0 mph 6.0 mph 90% 0.00 in 0 W/m2
22:20 22.5 °F 20.0 °F 29.81 in WNW 5.0 mph 5.0 mph 90% 0.00 in 0 W/m2
22:26 22.4 °F 19.9 °F 29.81 in NW 5.0 mph 5.0 mph 90% 0.00 in 0 W/m2
22:32 22.4 °F 19.9 °F 29.81 in NW 5.0 mph 5.0 mph 90% 0.00 in 0 W/m2
22:38 22.3 °F 19.8 °F 29.82 in NNW 6.0 mph 6.0 mph 90% 0.00 in 0 W/m2
22:44 22.3 °F 19.8 °F 29.82 in NW 7.0 mph 10.0 mph 90% 0.00 in 0 W/m2
22:50 22.2 °F 19.7 °F 29.82 in North 7.0 mph 8.0 mph 90% 0.00 in 0 W/m2
22:56 22.0 °F 19.3 °F 29.82 in NNW 7.0 mph 8.0 mph 89% 0.00 in 0 W/m2
23:02 21.9 °F 19.2 °F 29.82 in NW 7.0 mph 7.0 mph 89% 0.00 in 0 W/m2
23:08 21.9 °F 19.2 °F 29.82 in WNW 6.0 mph 7.0 mph 89% 0.00 in 0 W/m2
23:14 21.9 °F 19.2 °F 29.83 in NW 6.0 mph 8.0 mph 89% 0.00 in 0 W/m2
23:20 21.9 °F 19.2 °F 29.83 in NNE 6.0 mph 9.0 mph 89% 0.00 in 0 W/m2
23:26 22.0 °F 19.3 °F 29.83 in WNW 7.0 mph 9.0 mph 89% 0.00 in 0 W/m2
23:32 22.0 °F 19.3 °F 29.83 in NNW 4.0 mph 6.0 mph 89% 0.00 in 0 W/m2
23:38 22.0 °F 19.3 °F 29.83 in WNW 4.0 mph 10.0 mph 89% 0.00 in 0 W/m2
23:44 21.9 °F 19.2 °F 29.83 in West 4.0 mph 6.0 mph 89% 0.00 in 0 W/m2
23:50 21.8 °F 19.1 °F 29.83 in NW 4.0 mph 4.0 mph 89% 0.00 in 0 W/m2
23:56 21.7 °F 19.0 °F 29.83 in North 4.0 mph 8.0 mph 89% 0.00 in 0 W/m2
Country Meadow, Clay, NY, USA
Compliments of Weather Underground - 2 mb